Weather History for Cando, ND

Change the Weather History Date:

Sunday, March 3, 2013

  Actual Average (KDVL) Record (KDVL)
Temperature  
Mean Temperature 22 °F -  
Max Temperature 24 °F 26 °F 47 °F (1990)
Min Temperature 21 °F 9 °F -14 °F (1960)
Degree Days  
Heating Degree Days 42    
Moisture  
Dew Point 24 °F    
Average Humidity 99    
Maximum Humidity 100    
Minimum Humidity 93    
Precipitation  
Precipitation 0.17 in - - ()
Sea Level Pressure  
Sea Level Pressure 29.85 in    
Wind  
Wind Speed 10 mph (ESE)    
Max Wind Speed 22 mph    
Max Gust Speed 26 mph    
Visibility 4 miles    
Events Fog , Rain , Snow    
Averages and records for this station are not official NWS values.
T = Trace of Precipitation, MM = Missing Value Source: NWS Daily Summary

Daily Weather History Graph

Daily Weather History Graph

Search for Another Location

Airport:

Trip Planner

Search our weather history database for the weather conditions in past years. The results will help you decide how hot, cold, wet, or windy it might be!

Date:

Astronomy

Mar. 03, 2013 Rise Set
Actual Time 7:13 AM CST 6:24 PM CST
Civil Twilight 6:42 AM CST 6:55 PM CST
Nautical Twilight 6:06 AM CST 7:32 PM CST
Astronomical Twilight 5:29 AM CST 8:08 PM CST
Moon 12:35 AM CST (3/3) 9:58 AM CST (3/3)
Length of Visible Light 12h 13m
Length of Day
11h 10m
Waning Gibbous, 63% of the Moon is Illuminated
Mar 3
Waning Gibbous
Mar 4
Last Quarter
Mar 11
New
Mar 19
First Quarter
Mar 27
Full

Hourly Weather History & Observations

Time (CST) Temp. Windchill Dew Point Humidity Pressure Visibility Wind Dir Wind Speed Gust Speed Precip Events Conditions
12:15 AM 21.2 °F - 19.4 °F 93% 29.98 in 7.0 mi Calm Calm - N/A   Overcast
12:35 AM 21.2 °F - 21.2 °F 100% 29.98 in 7.0 mi Calm Calm - N/A   Overcast
12:55 AM 21.2 °F 16.4 °F 21.2 °F 100% 29.97 in 7.0 mi SE 3.5 mph - N/A   Overcast
1:15 AM 21.2 °F 14.9 °F 21.2 °F 100% 29.97 in 7.0 mi ESE 4.6 mph - N/A   Overcast
1:35 AM 23.0 °F 17.0 °F 23.0 °F 100% 29.97 in 7.0 mi SE 4.6 mph - N/A   Overcast
1:55 AM 23.0 °F 13.9 °F 23.0 °F 100% 29.96 in 7.0 mi SE 8.1 mph - N/A   Overcast
2:15 AM 23.0 °F 14.7 °F 23.0 °F 100% 29.96 in 6.0 mi SE 6.9 mph - N/A   Overcast
2:35 AM 23.0 °F 15.8 °F 23.0 °F 100% 29.95 in 7.0 mi ESE 5.8 mph - N/A   Overcast
2:55 AM 23.0 °F 17.0 °F 23.0 °F 100% 29.95 in 8.0 mi ESE 4.6 mph - N/A   Overcast
3:15 AM 23.0 °F 15.8 °F 23.0 °F 100% 29.94 in 9.0 mi ESE 5.8 mph - N/A   Overcast
3:35 AM 23.0 °F 13.1 °F 23.0 °F 100% 29.93 in 10.0 mi SE 9.2 mph - N/A   Overcast
3:55 AM 23.0 °F 13.1 °F 23.0 °F 100% 29.92 in 7.0 mi SE 9.2 mph - N/A   Overcast
4:15 AM 23.0 °F 13.1 °F 23.0 °F 100% 29.92 in 5.0 mi SE 9.2 mph - N/A   Overcast
4:35 AM 23.0 °F 13.1 °F 23.0 °F 100% 29.91 in 2.5 mi SE 9.2 mph - N/A   Overcast
4:55 AM 23.0 °F 12.4 °F 23.0 °F 100% 29.91 in 1.2 mi SE 10.4 mph - N/A   Overcast
5:15 AM 23.0 °F 13.9 °F 23.0 °F 100% 29.91 in 0.5 mi SE 8.1 mph - N/A Fog Light Freezing Fog
5:35 AM 23.0 °F 13.1 °F 23.0 °F 100% 29.91 in 0.5 mi ESE 9.2 mph - N/A Fog Light Freezing Fog
5:55 AM 23.0 °F 13.1 °F 23.0 °F 100% 29.92 in 1.0 mi SE 9.2 mph - N/A   Overcast
6:15 AM 23.0 °F 11.1 °F 23.0 °F 100% 29.91 in 1.5 mi SE 12.7 mph - N/A   Overcast
6:35 AM 23.0 °F 11.1 °F 23.0 °F 100% 29.90 in 1.2 mi SE 12.7 mph - N/A   Overcast
6:55 AM 23.0 °F 10.6 °F 23.0 °F 100% 29.90 in 1.5 mi SE 13.8 mph - N/A   Overcast
7:15 AM 23.0 °F 11.7 °F 23.0 °F 100% 29.89 in 0.5 mi SE 11.5 mph - N/A Fog Light Freezing Fog
7:35 AM 23.0 °F 11.1 °F 23.0 °F 100% 29.88 in 0.2 mi SE 12.7 mph - N/A Fog Light Freezing Fog
7:55 AM 23.0 °F 11.1 °F 23.0 °F 100% 29.87 in 0.5 mi SE 12.7 mph - N/A Fog Light Freezing Fog
8:15 AM 23.0 °F 11.1 °F 23.0 °F 100% 29.87 in 0.2 mi SE 12.7 mph - N/A Fog Light Freezing Fog
8:35 AM 23.0 °F 11.1 °F 23.0 °F 100% 29.87 in 0.5 mi SE 12.7 mph - N/A Fog Light Freezing Fog
8:55 AM 23.0 °F 10.1 °F 23.0 °F 100% 29.87 in 1.5 mi SE 15.0 mph - N/A   Overcast
9:15 AM 23.0 °F 10.6 °F 23.0 °F 100% 29.88 in 0.8 mi SE 13.8 mph - N/A   Overcast
9:35 AM 23.0 °F 10.6 °F 23.0 °F 100% 29.87 in 1.5 mi SE 13.8 mph - N/A   Overcast
9:55 AM 23.0 °F 11.7 °F 23.0 °F 100% 29.88 in 1.0 mi SE 11.5 mph - N/A   Overcast
10:15 AM 23.0 °F 10.6 °F 23.0 °F 100% 29.87 in 1.2 mi SE 13.8 mph - N/A   Overcast
10:35 AM 23.0 °F 11.7 °F 23.0 °F 100% 29.87 in 1.2 mi SE 11.5 mph - N/A   Overcast
10:55 AM 23.0 °F 11.7 °F 23.0 °F 100% 29.86 in 1.8 mi ESE 11.5 mph - N/A   Overcast
11:15 AM 23.0 °F 12.4 °F 23.0 °F 100% 29.85 in 2.5 mi ESE 10.4 mph - N/A   Overcast
11:35 AM 24.8 °F 14.0 °F 24.8 °F 100% 29.85 in 3.0 mi ESE 11.5 mph - N/A   Overcast
11:55 AM 24.8 °F 12.4 °F 24.8 °F 100% 29.83 in 4.0 mi ESE 15.0 mph - N/A   Overcast
12:15 PM 24.8 °F 13.4 °F 24.8 °F 100% 29.83 in 5.0 mi ESE 12.7 mph - N/A   Mostly Cloudy
12:35 PM 24.8 °F 11.5 °F 24.8 °F 100% 29.82 in 8.0 mi ESE 17.3 mph - N/A   Mostly Cloudy
12:55 PM 24.8 °F 11.1 °F 24.8 °F 100% 29.81 in 10.0 mi ESE 18.4 mph - N/A   Overcast
1:15 PM 24.8 °F 11.5 °F 24.8 °F 100% 29.80 in 10.0 mi ESE 17.3 mph - N/A   Overcast
1:35 PM 24.8 °F 10.7 °F 24.8 °F 100% 29.78 in 9.0 mi ESE 19.6 mph - N/A   Overcast
1:55 PM 24.8 °F 11.5 °F 24.8 °F 100% 29.78 in 9.0 mi ESE 17.3 mph - N/A   Overcast
2:15 PM 24.8 °F 11.9 °F 24.8 °F 100% 29.78 in 8.0 mi ESE 16.1 mph - N/A   Mostly Cloudy
2:35 PM 24.8 °F 11.9 °F 24.8 °F 100% 29.78 in 8.0 mi ESE 16.1 mph - N/A   Mostly Cloudy
2:55 PM 24.8 °F 11.9 °F 24.8 °F 100% 29.77 in 7.0 mi ESE 16.1 mph - N/A   Mostly Cloudy
3:15 PM 24.8 °F 11.9 °F 24.8 °F 100% 29.78 in 6.0 mi ESE 16.1 mph - N/A   Mostly Cloudy
3:55 PM 24.8 °F 11.1 °F 24.8 °F 100% 29.78 in 5.0 mi ESE 18.4 mph - N/A   Mostly Cloudy
4:15 PM 24.8 °F 10.7 °F 24.8 °F 100% 29.78 in 4.0 mi ESE 19.6 mph - N/A   Mostly Cloudy
4:35 PM 24.8 °F 10.0 °F 23.0 °F 93% 29.78 in 5.0 mi ESE 21.9 mph - N/A   Mostly Cloudy
4:55 PM 24.8 °F 10.3 °F 24.8 °F 100% 29.79 in 6.0 mi ESE 20.7 mph - N/A   Overcast
5:15 PM 24.8 °F 10.0 °F 23.0 °F 93% 29.78 in 6.0 mi ESE 21.9 mph - N/A   Overcast
5:35 PM 24.8 °F 10.3 °F 23.0 °F 93% 29.78 in 5.0 mi ESE 20.7 mph - N/A   Overcast
5:55 PM 24.8 °F 10.3 °F 23.0 °F 93% 29.78 in 0.5 mi ESE 20.7 mph - N/A Snow Snow
6:35 PM 24.8 °F 11.5 °F 24.8 °F 100% 29.77 in 1.2 mi East 17.3 mph - 0.01 in Rain Light Freezing Rain
6:55 PM 24.8 °F 10.7 °F 24.8 °F 100% 29.77 in 1.5 mi ESE 19.6 mph - 0.01 in Rain Light Freezing Rain
7:15 PM 24.8 °F 10.3 °F 24.8 °F 100% 29.77 in 1.0 mi ESE 20.7 mph - N/A Snow Light Snow
7:35 PM 24.8 °F 11.1 °F 24.8 °F 100% 29.77 in 1.5 mi ESE 18.4 mph 25.3 mph 0.01 in Rain Light Freezing Rain
7:55 PM 24.8 °F 10.3 °F 24.8 °F 100% 29.77 in 1.2 mi ESE 20.7 mph - 0.01 in Rain Light Freezing Rain
8:15 PM 24.8 °F 11.1 °F 24.8 °F 100% 29.77 in 1.0 mi ESE 18.4 mph - N/A Snow Light Snow
8:35 PM 24.8 °F 10.7 °F 24.8 °F 100% 29.77 in 0.8 mi ESE 19.6 mph 25.3 mph 0.01 in Snow Light Snow
8:55 PM 24.8 °F 10.0 °F 24.8 °F 100% 29.77 in 1.0 mi ESE 21.9 mph - 0.01 in Snow Light Snow
9:15 PM 24.8 °F 11.1 °F 24.8 °F 100% 29.77 in 0.8 mi ESE 18.4 mph - 0.01 in Snow Light Snow
9:35 PM 24.8 °F 10.7 °F 24.8 °F 100% 29.78 in 0.8 mi ESE 19.6 mph 24.2 mph 0.03 in Snow Light Snow
9:55 PM 24.8 °F 10.7 °F 24.8 °F 100% 29.78 in 0.8 mi ESE 19.6 mph - 0.05 in Snow Light Snow
10:15 PM 24.8 °F 10.7 °F 24.8 °F 100% 29.77 in 0.8 mi ESE 19.6 mph - 0.01 in Snow Light Snow
10:35 PM 24.8 °F 10.7 °F 24.8 °F 100% 29.77 in 0.8 mi ESE 19.6 mph - 0.02 in Snow Light Snow
10:55 PM 24.8 °F 11.9 °F 24.8 °F 100% 29.77 in 0.8 mi ESE 16.1 mph - 0.05 in Snow Light Snow
11:15 PM 24.8 °F 10.3 °F 24.8 °F 100% 29.77 in 0.8 mi East 20.7 mph - 0.02 in Snow Light Snow
11:35 PM 24.8 °F 10.7 °F 24.8 °F 100% 29.76 in 0.8 mi ESE 19.6 mph 26.5 mph 0.04 in Snow Light Snow